sat.trackr.live / text

‹ back to catalog

STARLINK-2686

NORAD 48464 · 2021-040AN

PAYLOAD ACTIVE UNKNOWN

§ Identity

Operator
Country
US
Launch date
2021-05-09
Launch site
AFETR
Launch vehicle
Mass (kg)
RCS (m²)

Purposes: comms

External: N2YO · Heavens-Above · Gunter

§ Orbital elements

Epoch: 2026-09-19T22:33:34.666848Z

Period
94.01 min
Inclination
53.1610°
Eccentricity
0.0001180
Mean motion
15.31702880 rev/d
Perigee alt
469.9 km
Apogee alt
471.5 km
Semi-major
6,848.9 km
B*
4.4409e-5
RAAN
7.1835°
Arg perigee
73.6043°
Mean anomaly
286.5088°
Rev number
29,626

§ Raw data

STARLINK-26861 48464U 21040AN  26262.93998457  .00001013  00000+0  44409-4 0  99942 48464  53.1610   7.1835 0001180  73.6043 286.5088 15.31702880296268

JSON: /api/v1/satellites/48464 · /tle

For live sub-satellite position, see the globe view (requires WebGL).

§ Visibility from observer

Set your observer location to see the next 7 days of passes ≥ 10°. The values pass through the URL so the page stays shareable.

No JS? Fill the form by hand. The geolocation button needs JavaScript.